Date,TemperatureHighF,TemperatureAvgF,TemperatureLowF,DewpointHighF,DewpointAvgF,DewpointLowF,HumidityHigh,HumidityAvg,HumidityLow,PressureMaxIn,PressureMinIn,WindSpeedMaxMPH,WindSpeedAvgMPH,GustSpeedMaxMPH,PrecipitationSumIn
2013-2-1,44,34,26,23,17,13,68,50,31,30.49,30.22,30,8,0,0.00
2013-2-2,41,31,17,21,16,10,82,56,37,30.59,30.50,18,3,0,0.00
2013-2-3,37,26,16,21,17,11,84,68,49,30.53,30.28,11,2,0,0.00
2013-2-4,50,38,20,20,17,12,78,43,28,30.32,30.04,34,14,0,0.00
2013-2-5,47,35,22,26,21,16,79,59,41,30.14,30.01,9,2,0,0.00
2013-2-6,47,35,28,23,17,9,70,49,21,30.32,30.03,19,6,0,0.00
2013-2-7,41,27,18,15,12,8,72,53,33,30.39,30.23,10,1,0,0.00
2013-2-8,37,25,12,25,14,4,92,67,35,30.26,30.12,9,2,0,0.00
2013-2-9,31,25,19,27,23,17,93,90,82,30.13,29.99,10,3,0,0.06
2013-2-10,28,20,16,21,16,12,92,82,70,30.46,30.08,24,4,0,0.01
2013-2-11,22,11,2,12,6,-1,89,80,58,30.55,30.45,4,0,0,0.03
2013-2-12,26,10,-4,12,4,-8,88,77,54,30.69,30.56,3,0,0,0.03
2013-2-13,42,25,3,24,14,-1,89,66,44,30.59,30.35,27,8,0,0.03
2013-2-14,29,23,11,21,16,8,88,74,57,30.63,30.37,21,4,0,0.00
2013-2-15,34,21,8,21,14,4,88,76,54,30.82,30.63,13,3,0,0.00
2013-2-16,40,27,12,25,18,5,82,69,53,30.65,30.18,8,2,0,0.00
2013-2-17,41,26,13,25,19,9,91,76,34,30.25,29.97,20,5,0,0.00
2013-2-18,31,22,14,20,14,8,90,72,42,30.38,30.25,11,2,0,0.00
2013-2-19,37,23,12,18,13,8,87,68,39,30.35,30.05,6,1,0,0.00
2013-2-20,38,25,17,19,15,11,78,67,47,30.08,29.96,11,1,0,0.00
2013-2-21,30,23,18,19,16,13,85,76,61,30.23,30.08,7,1,0,0.00
2013-2-22,34,25,14,17,10,6,86,57,34,30.32,30.08,33,7,0,0.00
2013-2-23,38,28,20,25,15,7,91,61,43,30.15,29.85,22,4,0,0.00
2013-2-24,32,25,13,19,15,8,85,68,43,30.41,30.15,18,5,0,0.00
2013-2-25,31,21,9,18,12,6,87,70,53,30.42,30.21,13,2,0,0.00
2013-2-26,34,27,22,20,16,11,90,65,38,30.52,30.22,17,6,0,0.00
2013-2-27,33,24,16,19,11,6,84,59,44,30.60,30.52,18,3,0,0.00
2013-2-28,40,28,12,17,12,5,79,53,36,30.62,30.54,26,6,0,0.00